EW8832 Weather Reports


Display with metric or nautical units.
time (UTC)temp
F
wind
direction
speed
MPH
gust
MPH
rain 1hr
in
rain 24hr
in
rain mn
in
humidity
%
barometer
mb
20260506223021 58 82 5.0 14.0 0.00 0.00 0.00 60 1013.8
20260506221517 58 19 7.0 13.0 0.00 0.00 0.00 63 1013.4
20260506220030 58 80 7.0 13.0 0.00 0.00 0.00 63 1013.5
20260506214518 58 38 5.0 13.0 0.00 0.00 0.00 63 1013.9
20260506213017 58 57 4.0 13.0 0.00 0.00 0.00 64 1013.9
20260506211520 57 27 6.0 12.0 0.00 0.00 0.00 64 1014.1
20260506210015 57 28 4.0 13.0 0.00 0.00 0.00 63 1014.1
20260506204516 57 81 6.0 12.0 0.00 0.00 0.00 64 1014.6
20260506203015 58 66 10.0 13.0 0.00 0.00 0.00 62 1014.6
20260506201515 58 17 7.0 11.0 0.00 0.00 0.00 62 1014.9
20260506200012 58 28 7.0 15.0 0.00 0.00 0.00 64 1015.0
20260506194511 56 62 7.0 11.0 0.00 0.00 0.00 64 1015.3
20260506193010 57 71 5.0 13.0 0.00 0.00 0.00 65 1015.6
20260506191508 57 67 7.0 12.0 0.00 0.00 0.00 67 1015.5
20260506190007 56 24 5.0 13.0 0.00 0.00 0.00 65 1015.6
20260506184505 55 23 6.0 14.0 0.00 0.00 0.00 68 1015.6
20260506183005 54 54 7.0 13.0 0.00 0.00 0.00 65 1015.7
20260506181503 55 55 7.0 16.0 0.00 0.00 0.00 66 1016.1
20260506180113 54 19 5.0 16.0 0.00 0.00 0.00 68 1016.3
20260506174556 54 19 6.0 15.0 0.00 0.00 0.00 70 1016.5
20260506173121 53 9 4.0 11.0 0.00 0.00 0.00 72 1017.0
20260506171556 52 37 5.0 12.0 0.00 0.00 0.00 72 1017.1
20260506170055 52 58 8.0 13.0 0.00 0.00 0.00 72 1016.9
20260506164547 52 22 9.0 16.0 0.00 0.00 0.00 73 1016.6
20260506163045 51 355 7.0 15.0 0.00 0.00 0.00 75 1016.2
20260506161544 51 49 8.0 14.0 0.00 0.00 0.00 73 1015.8
20260506160050 51 61 8.0 15.0 0.00 0.00 0.00 72 1015.8
20260506154538 51 86 10.0 19.0 0.00 0.00 0.00 76 1015.4
20260506153037 51 101 10.0 15.0 0.00 0.00 0.00 75 1015.4
20260506151536 50 52 10.0 15.0 0.00 0.00 0.00 76 1015.7
20260506150034 50 59 9.0 15.0 0.00 0.00 0.00 76 1015.9
20260506144532 49 12 8.0 14.0 0.00 0.00 0.00 79 1015.3
20260506143035 49 44 8.0 16.0 0.00 0.00 0.00 79 1015.2
20260506141530 49 44 9.0 17.0 0.00 0.00 0.00 80 1014.8
20260506140029 48 88 8.0 15.0 0.00 0.00 0.00 83 1014.6
20260506134526 47 39 5.0 14.0 0.00 0.00 0.00 83 1015.2
20260506133024 47 35 8.0 15.0 0.00 0.00 0.00 84 1015.4
20260506131539 47 46 7.0 17.0 0.00 0.00 0.00 84 1015.2
20260506130033 47 42 4.0 12.0 0.00 0.00 0.00 84 1015.0
20260506124518 47 43 6.0 15.0 0.00 0.00 0.00 83 1014.8
20260506123018 47 21 7.0 14.0 0.00 0.01 0.00 83 1014.9
20260506121515 46 34 4.0 16.0 0.00 0.01 0.00 83 1014.4
20260506120017 46 19 5.0 11.0 0.00 0.01 0.00 83 1014.1
20260506114511 46 26 7.0 17.0 0.00 0.01 0.00 82 1014.0
20260506113009 47 360 7.0 15.0 0.00 0.01 0.00 82 1013.7
20260506111509 47 5 7.0 11.0 0.00 0.01 0.00 83 1013.5
20260506110006 47 55 4.0 9.0 0.00 0.01 0.00 81 1013.4
20260506104504 47 69 8.0 14.0 0.00 0.01 0.00 81 1013.0
20260506103003 47 75 4.0 13.0 0.00 0.02 0.00 83 1012.3
20260506101601 47 89 5.0 14.0 0.00 0.02 0.00 82 1012.4
20260506100057 47 68 8.0 14.0 0.00 0.02 0.00 83 1011.6
20260506094621 47 76 7.0 14.0 0.00 0.02 0.00 83 1011.2
20260506093054 47 76 8.0 15.0 0.00 0.04 0.00 84 1010.8
20260506091553 47 88 10.0 14.0 0.00 0.04 0.00 85 1010.7
20260506090050 47 46 7.0 13.0 0.00 0.04 0.00 86 1011.2
20260506084547 47 59 6.0 10.0 0.00 0.04 0.00 87 1011.0
20260506083042 47 46 3.0 12.0 0.00 0.42 0.00 88 1010.8
20260506081538 47 23 6.0 12.0 0.00 0.42 0.00 89 1010.4
20260506073033 47 28 5.0 14.0 0.00 0.45 0.00 90 1010.1
20260506071534 47 42 7.0 18.0 0.00 0.45 0.00 89 1010.1
20260506061525 47 22 9.0 16.0 0.00 0.46 0.00 91 1010.3
20260506044510 48 35 5.0 16.0 0.00 0.46 0.46 90 1009.8
20260506043010 48 76 6.0 17.0 0.00 0.46 0.46 90 1009.8
20260506041513 48 69 5.0 12.0 0.00 0.46 0.46 90 1009.8
20260506040009 48 49 8.0 18.0 0.00 0.46 0.46 90 1009.5
20260506034505 48 65 5.0 15.0 0.00 0.46 0.46 90 1009.1
20260506033003 48 30 8.0 14.0 0.00 0.46 0.46 90 1009.1
20260506031600 48 80 7.0 17.0 0.00 0.46 0.46 91 1008.9
20260506030058 48 49 10.0 21.0 0.00 0.46 0.46 92 1008.4
20260506024600 48 38 10.0 19.0 0.00 0.46 0.46 92 1007.9
20260506023059 47 50 7.0 15.0 0.00 0.46 0.46 93 1007.8
20260506021553 47 76 9.0 17.0 0.00 0.46 0.46 92 1007.2
20260506020051 48 61 10.0 19.0 0.00 0.46 0.46 93 1007.3
20260506014548 48 80 7.0 14.0 0.00 0.46 0.46 92 1007.0
20260506013046 48 65 8.0 15.0 0.00 0.46 0.46 92 1007.5
20260506011544 49 22 5.0 11.0 0.00 0.46 0.46 91 1007.1
20260506010043 49 36 5.0 14.0 0.00 0.46 0.46 91 1006.7
20260506004541 49 36 7.0 12.0 0.00 0.46 0.46 92 1006.7
20260506003040 49 19 8.0 16.0 0.00 0.46 0.46 91 1006.5
20260506001540 49 22 7.0 15.0 0.00 0.46 0.46 92 1006.3
20260506000036 49 55 7.0 17.0 0.00 0.46 0.46 92 1005.9
20260505234536 49 15 9.0 19.0 0.00 0.46 0.46 92 1005.9
20260505233029 50 24 9.0 15.0 0.00 0.46 0.46 92 1005.1
20260505231527 51 13 6.0 16.0 0.00 0.46 0.46 92 1005.4
20260505230044 51 19 10.0 17.0 0.00 0.46 0.46 91 1005.2
20260505224521 52 34 9.0 16.0 0.00 0.46 0.46 91 1004.6